Date,TemperatureHighF,TemperatureAvgF,TemperatureLowF,DewpointHighF,DewpointAvgF,DewpointLowF,HumidityHigh,HumidityAvg,HumidityLow,PressureMaxIn,PressureMinIn,WindSpeedMaxMPH,WindSpeedAvgMPH,GustSpeedMaxMPH,PrecipitationSumIn
2013-2-1,46,40,37,36,34,31,89,79,66,29.85,29.31,6,1,10,0.02
2013-2-2,40,37,29,35,31,21,93,81,69,29.77,29.22,9,1,13,0.06
2013-2-3,41,32,25,29,24,20,84,72,56,29.97,29.77,5,1,10,0.00
2013-2-4,40,37,33,36,32,28,89,83,77,29.81,29.72,10,2,16,0.08
2013-2-5,49,40,35,36,33,28,88,76,57,29.82,29.49,9,2,17,0.00
2013-2-6,44,34,25,29,24,20,84,69,43,29.62,29.51,5,1,8,0.00
2013-2-7,40,31,24,28,26,20,88,80,62,29.83,29.63,3,0,5,0.00
2013-2-8,39,30,24,27,24,21,88,81,57,31.31,29.83,3,0,7,0.02
2013-2-9,36,29,27,26,23,21,88,77,58,30.07,29.95,2,0,3,0.00
2013-2-10,36,29,24,24,21,19,85,72,53,30.06,29.92,2,0,3,0.00
2013-2-11,29,27,20,23,20,15,87,75,69,29.92,29.79,5,1,5,0.00
2013-2-12,30,29,28,27,24,21,90,84,75,29.95,29.77,5,1,5,0.00
2013-2-13,32,29,28,26,25,24,90,84,77,30.32,29.95,3,0,4,0.04
2013-2-14,32,30,28,26,25,24,86,83,80,30.32,30.12,3,0,7,0.00
2013-2-15,34,31,30,30,28,26,90,87,83,30.18,30.06,1,0,2,0.00
2013-2-16,35,32,30,31,29,28,92,88,83,30.26,30.18,2,0,2,0.14
2013-2-17,34,32,31,31,30,29,93,90,86,30.28,30.23,2,0,12,0.06
2013-2-18,35,32,31,30,28,27,92,85,71,30.24,30.10,2,0,3,0.00
2013-2-19,34,32,30,31,28,26,90,85,76,30.10,29.83,10,1,11,0.12
2013-2-20,33,29,26,26,24,22,88,83,67,30.15,29.98,5,1,7,0.00
2013-2-21,28,25,21,23,20,18,89,82,72,30.17,30.10,3,0,3,0.00
2013-2-22,28,24,20,22,19,16,89,82,71,30.10,29.89,29,0,62,0.00
2013-2-23,30,26,23,27,24,20,91,89,85,29.90,29.76,5,0,10,0.00
2013-2-24,42,33,27,34,29,25,93,86,67,29.97,29.78,5,0,6,0.27
2013-2-25,41,36,33,38,34,31,94,91,87,30.28,29.96,1,0,2,0.20
2013-2-26,40,36,33,35,33,30,94,89,82,30.39,30.27,6,1,6,0.00
2013-2-27,38,34,31,33,31,28,91,87,80,30.44,30.39,3,0,3,0.00
2013-2-28,38,35,32,33,31,29,92,85,73,30.42,30.22,3,0,4,0.00